EHI
0 0 0 0 0 0 0 0 0 0 0 0 0 0 0 0 0 0 1 4 7 5 2 0 0 1 2 3 3 2 1 0 0 0 0 0 0 0 0 0 0 0 0
0 0 0 0 0 0 0 0 0 0 0 0 0 0 0 0 0 0 0 2 4 3 2 1 1 1 1 2 2 2 1 0 0 0 0 0 0 0 0 0 0 0 0
0 0 0 0 0 0 0 0 0 0 0 0 0 0 0 0 0 0 0 0 1 1 1 2 2 2 1 1 1 1 0 0 0 0 0 0 0 0 0 0 0 0 0
0 0 0 0 0 0 0 0 0 0 0 0 0 0 0 0 0 0 0 0 0 0 0 1 1 1 1 2 2 1 0 0 0 0 0 0 0 0 0 0 0 0 0
0 0 0 0 0 0 0 0 0 0 0 0 0 0 0 0 0 0 0 0 0 0 0 0 0 0 1 1 2 2 1 0 0 0 0 0 0 0 0 0 0 0 0
0 0 0 0 0 0 0 0 0 0 0 0 0 0 0 0 0 0 0 0 0 0 0 0 0 0 0 0 1 1 1 0 0 0 0 0 0 0 0 0 0 0 0
0 0 0 0 0 0 0 0 0 0 0 0 0 0 0 0 0 0 0 0 0 0 0 0 0 0 0 0 0 0 0 0 0 0 0 0 0 0 0 0 0 0 0
0 0 0 0 0 0 0 0 0 0 0 0 0 0 0 0 0 0 0 0 0 0 0 0 0 0 0 0 0 0 0 0 0 0 0 0 0 0 0 0 0 0 0
0 0 0 0 0 0 0 0 0 0 0 0 0 0 0 0 0 0 0 0 0 0 0 0 0 0 0 0 0 0 0 0 0 0 0 0 0 0 0 0 0 0 0
0 0 0 0 0 0 0 0 0 0 0 0 0 0 0 0 0 0 0 0 0 0 0 0 0 0 0 0 0 0 0 0 0 0 0 0 0 0 0 0 0 0 0
0 0 0 0 0 0 0 0 0 0 0 0 0 0 0 0 0 0 0 0 0 0 0 0 0 0 0 0 0 0 0 0 0 0 0 0 0 0 0 0 0 0 0
0 0 0 0 0 0 0 0 0 0 0 0 0 0 0 0 0 0 0 0 0 0 0 0 0 0 0 0 0 0 0 0 0 0 0 0 0 0 0 0 0 0 0
0 0 0 0 0 0 0 0 0 1 0 0 0 0 0 0 0 0 0 0 0 0 0 0 0 0 0 0 0 0 0 0 0 0 0 0 0 0 0 0 0 0 0
0 0 0 0 0 0 0 0 0 0 0 0 0 0 0 0 0 0 0 0 0 0 0 0 0 0 0 0 0 0 0 0 0 0 0 0 0 0 0 0 0 0 0
0 0 0 0 0 0 0 0 0 0 0 0 0 0 0 0 0 0 0 0 0 0 0 0 0 0 0 0 0 0 0 0 0 0 0 0 0 0 0 0 0 0 0
0 0 0 0 0 0 0 0 0 0 0 0 0 0 0 0 0 0 0 0 0 0 0 0 0 0 0 0 0 0 0 0 0 0 0 0 0 0 0 0 0 0 0
0 0 0 0 0 0 0 0 0 0 0 0 0 0 0 0 0 0 0 0 0 0 0 0 0 0 0 0 0 0 0 0 0 0 0 0 0 0 0 0 0 0 0
0 0 0 0 0 0 0 0 0 0 0 0 0 0 0 0 0 0 0 0 0 0 0 0 0 0 0 0 0 0 0 0 0 0 0 0 0 0 0 0 0 0 0
0 0 0 0 0 0 0 0 0 0 0 0 0 0 0 0 0 0 0 0 0 0 0 0 0 0 0 0 0 0 0 0 0 0 0 0 0 0 0 0 0 0 0
0 0 0 0 0 0 0 0 0 0 0 0 0 0 0 0 0 0 0 0 0 0 0 0 0 0 0 0 0 0 0 0 0 0 0 0 0 0 0 0 0 0 0
0 0 0 0 0 0 0 0 0 0 0 0 0 0 0 0 0 0 0 0 0 0 0 0 0 0 0 0 0 0 0 0 0 0 0 0 0 0 0 0 0 0 0
0 0 0 0 0 0 0 0 0 0 0 0 0 0 0 0 0 0 0 0 0 0 0 0 0 0 0 0 0 0 0 0 0 0 0 0 0 0 0 0 0 0 0
5 4 2 0 0 0 0 0 0 0 0 0 0 0 0 0 0 0 0 0 0 0 0 0 0 0 0 0 0 0 0 0 0 0 0 0 0 0 0 0 0 0 0
20 14 6 2 1 0 0 0 0 0 0 0 0 0 0 0 0 0 0 0 0 0 0 0 0 0 0 0 0 0 0 0 0 0 0 0 0 0 0 0 0 0 0
30 20 10 5 3 2 0 0 0 0 0 0 0 0 0 0 0 0 0 0 0 0 0 0 0 0 0 0 0 0 0 0 0 0 0 0 0 0 0 0 0 0 0
26 19 11 8 6 3 1 0 0 0 0 0 0 0 0 0 0 0 0 0 0 0 0 0 0 0 0 0 0 0 0 0 0 0 0 0 0 0 0 0 0 0 0
Wind_Speed
7 7 6 5 5 4 5 4 5 6 6 7 7 8 9 9 9 8 8 17 16 13 10 9 9 9 9 10 9 7 4 2 1 1 0 0 1 2 4 6 6 7 8
6 7 8 7 6 5 4 5 7 6 5 5 7 7 8 8 9 9 8 11 18 18 16 14 13 11 10 10 10 9 8 5 3 3 2 2 1 2 4 6 6 7 8
8 8 8 8 7 6 6 5 7 5 5 5 6 6 7 7 8 9 9 7 8 15 19 18 17 15 13 12 12 11 10 8 7 6 5 3 2 2 3 4 5 7 8
9 7 7 7 7 6 6 6 6 6 5 4 4 4 6 5 7 7 7 8 7 6 12 16 17 17 17 16 14 13 11 9 8 7 7 5 3 3 2 3 4 6 7
11 9 7 8 9 6 6 7 6 6 5 4 4 3 4 6 6 6 9 9 8 7 7 9 12 15 16 17 16 15 12 9 9 8 6 5 4 4 2 2 3 4 5
11 9 7 10 10 7 6 7 7 6 5 5 4 3 3 5 5 6 7 7 7 9 8 7 5 8 14 16 17 16 15 11 9 8 7 5 4 3 3 2 2 3 4
11 8 7 10 9 9 10 10 8 8 7 6 5 5 4 4 5 4 4 5 7 7 7 7 6 5 6 11 15 16 17 15 11 8 7 7 6 4 4 4 3 2 3
11 9 8 7 9 8 11 11 9 7 6 7 6 6 5 5 3 3 3 3 5 5 6 6 7 6 6 5 9 15 16 16 13 9 10 11 10 7 4 4 3 3 2
11 8 8 7 9 11 10 12 13 13 9 10 8 6 4 4 5 5 5 3 3 3 3 4 5 6 6 5 6 10 14 15 16 14 14 14 14 11 6 4 3 3 4
12 10 8 8 10 11 11 12 14 12 11 10 8 6 4 3 4 5 5 5 4 3 3 3 3 4 5 4 5 9 12 13 14 15 15 15 15 14 9 7 6 6 4
11 12 12 11 12 12 13 12 12 13 11 10 9 8 6 4 6 4 6 6 6 5 4 3 2 2 3 4 3 7 9 10 12 14 14 14 15 16 13 11 10 10 9
7 12 13 13 12 10 11 10 10 13 11 12 11 9 8 7 7 5 4 6 6 6 6 4 3 3 2 2 5 5 6 8 9 11 12 13 14 15 17 16 15 14 12
5 8 10 11 11 10 8 6 6 9 11 12 12 9 8 7 6 6 5 4 5 6 6 5 5 4 4 3 4 2 4 6 6 7 9 10 12 13 14 14 15 14 14
5 6 7 8 9 9 9 8 6 7 9 11 13 11 7 7 5 6 5 4 5 5 6 6 6 6 5 4 5 5 5 4 4 4 6 8 10 11 11 11 12 12 12
4 6 6 6 7 8 9 9 7 7 8 10 11 11 8 7 7 7 7 6 6 6 6 7 6 7 6 5 6 5 4 7 4 3 5 6 8 9 10 9 10 11 11
5 6 7 6 7 7 8 8 8 7 6 7 6 8 7 6 7 7 7 8 8 7 5 5 6 7 8 6 6 5 3 6 4 4 5 5 6 8 8 9 9 10 10
6 7 7 8 8 8 8 7 7 9 7 5 4 6 8 9 7 7 7 8 8 7 7 5 5 6 10 9 8 6 5 6 7 6 5 5 6 7 7 7 7 8 8
7 8 8 8 7 8 8 8 8 7 5 2 3 5 8 7 9 7 7 9 8 9 8 8 6 6 10 10 9 8 6 5 4 8 6 6 5 5 5 5 6 6 6
8 8 9 9 9 9 9 9 8 8 6 5 5 7 8 8 9 8 9 9 8 8 8 7 6 5 6 8 9 8 8 6 5 7 7 7 5 5 4 4 5 5 4
8 8 8 9 9 10 10 10 9 10 11 11 10 9 9 11 11 10 9 10 9 9 8 7 7 7 6 7 8 8 8 7 7 6 5 3 5 5 5 3 3 4 4
8 8 7 7 7 7 8 10 11 12 13 13 12 11 11 11 10 9 7 8 8 8 7 8 8 7 7 7 9 8 7 7 8 6 7 7 7 7 7 7 5 5 6
10 9 8 8 8 6 6 6 7 9 10 11 12 11 10 10 12 12 13 11 8 9 10 9 9 10 12 11 9 8 8 8 7 8 8 7 5 5 5 5 8 7 5
10 10 10 10 10 8 8 8 9 9 9 10 10 10 8 8 10 11 13 15 14 14 13 11 11 13 12 12 12 12 11 10 7 7 8 7 7 6 5 6 10 7 6
10 10 10 10 10 8 9 9 8 12 10 10 10 11 10 10 11 11 10 11 12 13 13 13 12 10 8 8 12 12 11 10 6 6 7 6 7 6 6 7 12 8 7
9 10 9 10 10 8 9 8 9 9 9 10 9 9 9 10 7 7 9 10 9 8 5 6 6 4 2 5 8 8 8 8 8 7 8 6 6 6 6 6 10 11 8
8 8 8 9 10 9 9 9 10 7 8 7 6 6 4 4 4 6 8 6 6 5 3 4 5 5 6 8 11 11 8 9 7 7 9 8 6 6 5 6 7 9 9
Wind_Direction
178 159 161 154 154 151 155 145 135 95 83 71 66 70 75 76 84 84 67 61 60 60 66 73 73 69 68 69 66 69 89 100 127 162 315 36 58 52 26 9 2 2 8
185 174 163 159 165 174 165 157 131 118 103 88 78 71 67 72 76 83 84 74 61 54 57 63 67 69 71 71 68 65 65 63 55 39 21 356 1 21 26 22 21 19 19
187 186 171 174 172 170 167 161 135 124 114 117 103 82 72 62 69 71 67 59 72 64 49 49 54 59 62 63 64 65 64 61 53 43 37 31 17 14 28 35 40 34 26
190 186 178 182 181 172 165 162 162 150 143 146 128 102 93 77 68 71 71 70 59 64 66 49 44 49 56 56 55 56 57 57 52 45 37 32 25 17 16 56 56 41 26
192 183 189 183 185 186 175 176 182 167 157 153 134 120 95 81 79 73 70 66 71 61 67 73 62 47 45 45 43 41 41 47 49 49 41 34 25 14 11 70 62 40 22
204 191 194 195 192 188 187 191 187 183 166 174 154 132 110 106 91 71 72 70 68 67 62 53 65 68 51 41 34 32 27 35 43 43 42 39 25 359 342 341 20 28 21
202 200 213 209 198 195 197 197 187 190 182 179 162 151 144 123 96 105 82 82 80 71 79 72 57 49 72 65 39 32 26 23 26 33 46 47 38 20 356 327 303 334 12
197 194 207 228 210 208 210 209 192 190 189 194 190 176 165 154 159 133 127 100 96 92 74 72 74 65 51 60 61 33 24 16 15 44 60 55 46 35 19 356 315 296 305
189 180 191 223 236 220 216 219 206 194 193 201 208 205 200 172 150 165 159 160 125 115 100 70 71 70 61 53 48 41 20 18 28 50 54 46 37 31 31 24 8 336 304
193 183 191 213 238 237 225 220 214 202 196 196 208 234 245 143 180 157 186 188 174 167 144 133 95 84 75 73 77 47 20 23 30 36 36 32 29 29 36 47 43 37 24
200 198 203 209 227 234 232 223 213 206 199 199 199 204 202 184 235 184 165 179 189 195 180 169 156 115 89 80 63 53 22 26 37 37 33 30 30 31 37 46 48 47 42
214 213 211 213 217 221 222 220 213 209 211 207 205 203 201 202 216 210 189 177 182 176 183 179 191 160 145 131 80 57 30 28 43 45 40 35 33 32 32 36 40 41 39
214 218 214 214 211 207 197 185 192 211 217 216 213 210 211 219 214 217 226 193 181 166 176 192 193 182 184 180 126 138 95 36 44 55 52 44 39 36 32 30 31 30 31
207 204 207 207 205 196 183 170 164 202 218 217 217 212 215 226 227 231 238 233 216 189 193 192 179 191 190 194 115 241 129 74 44 84 71 59 50 43 36 33 31 27 24
203 199 195 193 190 185 179 168 165 187 214 216 212 212 210 215 221 232 240 241 243 233 214 203 184 196 193 189 153 212 163 106 70 102 101 75 63 52 39 32 31 26 16
185 175 183 188 189 185 178 169 159 164 190 210 215 216 212 220 221 221 228 235 243 250 244 196 183 183 188 186 179 215 125 132 122 103 121 99 80 62 44 30 26 19 8
177 183 189 196 194 187 178 165 157 154 164 186 208 221 223 223 216 214 218 226 233 240 244 222 178 182 184 195 172 199 182 201 146 125 122 118 98 73 52 33 24 18 11
190 193 191 202 194 178 173 167 161 154 154 183 249 254 239 220 223 221 219 224 227 232 235 225 183 196 199 197 185 188 193 206 182 131 133 124 112 91 68 40 26 22 28
195 198 193 202 204 193 183 179 174 168 174 205 238 259 261 240 225 226 227 232 228 232 232 225 188 178 200 200 194 194 196 194 201 156 159 149 136 117 98 64 38 29 54
201 201 195 200 207 204 198 192 191 190 193 203 215 230 250 257 250 246 236 237 227 227 227 220 191 178 184 195 196 197 196 193 202 188 181 173 148 145 139 132 86 68 80
212 211 206 201 201 204 202 199 199 203 204 208 213 218 228 246 273 281 273 252 225 218 222 222 211 188 184 182 201 200 201 190 198 192 191 189 188 191 170 168 152 109 94
215 215 218 214 206 204 180 203 228 224 224 221 221 223 223 226 241 243 251 261 251 229 224 226 223 212 204 201 194 192 194 189 198 189 207 195 200 203 198 178 133 129 121
212 213 219 219 218 202 172 200 223 242 238 238 235 231 222 226 230 236 228 228 237 242 247 248 241 238 226 200 189 192 198 199 208 160 193 189 190 205 190 136 141 169 165
205 207 211 216 223 205 185 204 209 235 239 237 235 236 227 226 221 228 232 232 235 227 226 237 251 259 251 208 196 202 202 204 196 156 194 200 183 199 182 174 164 187 191
202 201 202 205 210 203 187 201 211 234 238 235 229 228 228 231 205 212 243 247 247 245 231 246 275 293 256 202 201 206 187 184 192 187 196 216 180 189 186 197 173 184 195
209 205 205 205 204 202 178 195 218 236 237 229 219 213 201 245 153 194 236 252 255 239 209 205 214 211 215 202 200 208 190 198 202 187 187 201 176 184 197 194 187 182 194